Regional Weather Roundup
Issued by NWS Portland, ME

Home | Current Version | Previous Version | Text Only | Print | Product List | Glossary On
Versions: 1 2 3 4 5 6 7 8 9 10 11 12 13 14 15 16 17 18 19 20 21 22 23 24 25 26 27 28 29 30 31 32 33 34 35 36 37 38 39 40 41 42 43 44 45 46 47 48 49 50
000
ASUS41 KGYX 220710
RWRGYX
WEATHER ROUNDUP FOR MAINE AND NEW HAMPSHIRE
NATIONAL WEATHER SERVICE GRAY ME
300 AM EDT SAT JUL 22 2017

MEZ002-005-006-010-012-015-018-020-021-024-026-027-029-220800-
MAINE

CITY           SKY/WX    TMP DP  RH WIND       PRES   REMARKS
PORTLAND       CLOUDY    72  62  71 W6        29.80R
SANFORD          N/A     71  63  75 W7        29.82R
BAR HARBOR     CLEAR     67  59  75 N5        29.77S
WISCASSET      CLOUDY    66  62  87 CALM      29.80R
ROCKLAND       MOCLDY    66  61  84 W6        29.77S
FRYEBURG       PTCLDY    63  62  97 N3        29.83R
LEWISTONAUBURN PTCLDY    71  61  70 NW3       29.81R
AUGUSTA        CLEAR     71  59  65 NW5       29.81R
BANGOR         CLEAR     65  59  81 CALM      29.78S
GREENVILLE       N/A     60  59  96 CALM      29.80R
MILLINOCKET    CLEAR     60  59  96 NW5       29.79R
HOULTON        CLEAR     52  52 100 CALM      29.74R
PRESQUE ISLE   FOG       54  54 100 CALM      29.76S VSB 3/4
FRENCHVILLE    PTCLDY    53  51  93 W8        29.75R
CARIBOU        CLEAR     56  53  90 W5        29.74S
$$

NHZ002-005-008-009-011-012-014-220800-
NEW HAMPSHIRE

CITY           SKY/WX    TMP DP  RH WIND       PRES   REMARKS
PORTSMOUTH     MOCLDY    73  60  64 W7        29.80R
ROCHESTER      CLOUDY    72  59  63 VRB3      29.81S
NASHUA         MOCLDY    68  62  81 CALM      29.85R
MANCHESTER     MOCLDY    75  57  53 CALM      29.83R
CONCORD        MOCLDY    72  59  63 NW3       29.85R
LACONIA        CLOUDY    70  62  76 SW3       29.85S
PLYMOUTH       FAIR      67  60  79 W6        29.85R
BERLIN         MOCLDY    59  56  89 CALM      29.86S
WHITEFIELD     PTCLDY    61  57  87 CALM      29.87R
JAFFREY        PTCLDY    65  60  84 S3        29.89S
KEENE          CLOUDY    62  60  93 CALM      29.88S
LEBANON        MOCLDY    65  59  81 CALM      29.86S
MT WASHINGTON  FOG       46  46 100 NW29G44     N/A  VSB 1/16
$$

VTZ005-007-008-220800-
VERMONT

CITY           SKY/WX    TMP DP  RH WIND       PRES   REMARKS
ST JOHNSBURY     N/A     64  63  96 MISG      29.85R
MONTPELIER     CLOUDY    61  61 100 S5        29.92R
BURLINGTON     PTCLDY    65  63  93 CALM      29.86R
$$

MAZ007-012-024-CTZ003-RIZ002-NYZ038-NYZ072-220800-
SOUTHERN NEW ENGLAND AND NY

CITY           SKY/WX    TMP DP  RH WIND       PRES   REMARKS
BOSTON         CLOUDY    76  58  53 W12       29.83S
WORCESTER      CLOUDY    70  57  63 W12       29.89S
NANTUCKET      PTCLDY    72  71  97 W10       29.84S
PROVIDENCE     MOCLDY    74  68  81 W6        29.86R
HARTFORD       MOCLDY    71  61  70 NW10      29.87S
ALBANY         CLOUDY    70  59  68 SE3       29.89F
NEW YORK CITY  MOCLDY    84  72  67 W7        29.85S
$$

ANZ081-ANZ082-ANZ150-NHZ014-MEZ023>029-220800-
COASTAL MARINE OBSERVATIONS

STATION/POSITION TIME  TEMP    WIND        PRES    WAVE
                       AIR SEA DIR/SP/G            HT/PER
                 (UTC) (F)     (DEG/KT/KT) (MB)    (FT/S)
MOUNT DESERT ROC 0700   67                 1007.8R
MATINICUS ROCK   0600   70     320/ 15/ 15 1007.3S
ISLE OF SHOALS   0600   76     300/ 19/ 20 1008.2F
JEFFREYS LEDGE   0606      66                N/A     2/10
CASHES LEDGE BUO 0650   71 70              1008.2R   2/ 7
GEORGES BANK BUO 0550   64 62              1009.0    3/ 6
$$

.............KEY..............
   WCI - WIND CHILL
   TC  - TEMPERATURE IN CELSIUS
   VSB - VISIBILITY IN MILES
   HX  - HEAT INDEX
   FAIR- INDICATES FEW OR NO CLOUDS BELOW 12,000 FT, WITH NO
         SIGNIFICANT WEATHER AND/OR OBSTRUCTIONS TO VISIBILITY.






USA.gov is the U.S. government's official web portal to all federal, state and local government web resources and services.